STARLINK-32526, 62162

Orbit data source: Space-Track

STARLINK-32526, 62162 is a payload satellite owned by SpaceX/Seattle (US) in LEO that was launched on Sat, 30 Nov 2024 UTC via an FALCON 9 launch vehicle from the Air Force Eastern Test Range (AFETR). Payload-class satellites include a variety of spacecraft equipped with specific instruments for various scientific and technological missions. These include communications satellites like Starlink; space stations such as the ISS; scientific satellites like the Hubble; Earth observation satellites from companies like Planet Labs, Umbra, and HawkEye 360; GPS; miniature CubeSats for education and research; and military/defense satellites.

Loading next visibility...
Identifier
62162, 2024-224Z
Orbit
LEO
Country
Flag of USUS
Related business
Manufacturer
SpaceX/Seattle
Mission
Operational Commercial Communications
Bus & Motor
STARLINK V2M, Unknown motor
Mass
730 kg wet, ~700 kg dry
Launch date (UTC)
2024-11-30 (2 years ago)
Launch vehicle
FALCON 9
Launch site
Air Force Eastern Test Range (AFETR)
Object type
Payload
Rocket body
Debris
Shape & HBR
Box + 2 Pan, 17.7 m
Radar Cross Section
33.884 m², Large (>1 m²)

Expand to show TLE details & history
Last TLE update: 15 hours ago

TLE from 15 hours ago
0 STARLINK-32526
1 62162U 24224Z   26171.36665764  .00024369  00000-0  89196-3 0  9991
2 62162  42.9979 301.6565 0000698 226.5607 133.5187 15.27586922 88131
Epoch: 2026-06-20T08:47Z
TLE epoch observation values (Epoch: 2026-06-20T08:47:59.220Z)
Latitude
0.00003°
Longitude
-98.92253°
Altitude
483.133 km
Speed
7.625 km/s
True Right ascension
20h 06m 37s
True Declination
0° 00' 00"
Sunlit
Object was in full shadow at epoch
Visualization orbit readout
Latitude
Unknown
Longitude
Unknown
Altitude
Unknown
Speed
Unknown
Apparent Right ascension
Unknown
Apparent Declination
Unknown
Sunlit
N/A
Visualization observer readout
Local Sidereal Time
10:19:36
Azimuth
Unknown
Elevation
Unknown
Doppler factor
Unknown
Orbital elements
Apogee altitude
485.453 km
Perigee altitude
484.495 km
Semi-major axis
6,863.111 km
Eccentricity
0.00007
Inclination
42.9979°
RAAN
301.6565°
Arg. of periapsis
226.5607°
True anomaly
133.5245°
Mean anomaly
133.5187°
Eccentric anomaly
133.5216°
Mean motion
3.81735 °/min
Orbital period
94.31 mins
BSTAR
0.00089196
Loading maneuver chart data...
Computing Atmospheric mass density...
Loading historical data...
Loading historical data...
Loading historical data...
Loading historical data...
Loading historical data...
Loading historical data...
Loading historical data...

Documentation

Showing up to 5 results
|